TimePST,TemperatureF,Dew PointF,Humidity,Sea Level PressureIn,VisibilityMPH,Wind Direction,Wind SpeedMPH,Gust SpeedMPH,PrecipitationIn,Events,Conditions,WindDirDegrees,DateUTC
12:53 AM,46.0,28.9,51,30.33,10.0,South,3.5,-,N/A,,Clear,190,2013-01-31 08:53:00
1:53 AM,43.0,30.0,60,30.34,10.0,Calm,Calm,-,N/A,,Clear,0,2013-01-31 09:53:00
2:53 AM,44.1,30.0,58,30.33,10.0,WSW,3.5,-,N/A,,Clear,240,2013-01-31 10:53:00
3:53 AM,42.1,30.9,65,30.33,10.0,Calm,Calm,-,N/A,,Clear,0,2013-01-31 11:53:00
4:53 AM,39.9,30.9,70,30.33,10.0,North,4.6,-,N/A,,Clear,10,2013-01-31 12:53:00
5:53 AM,39.9,30.9,70,30.34,10.0,Calm,Calm,-,N/A,,Clear,0,2013-01-31 13:53:00
6:53 AM,42.1,30.0,62,30.35,10.0,NNE,3.5,-,N/A,,Clear,30,2013-01-31 14:53:00
7:53 AM,46.0,32.0,58,30.37,10.0,NW,5.8,-,N/A,,Clear,310,2013-01-31 15:53:00
8:53 AM,50.0,33.1,52,30.37,10.0,Calm,Calm,-,N/A,,Clear,0,2013-01-31 16:53:00
9:53 AM,53.1,32.0,45,30.37,10.0,Calm,Calm,-,N/A,,Clear,0,2013-01-31 17:53:00
10:53 AM,54.0,30.9,41,30.35,10.0,SSE,3.5,-,N/A,,Clear,150,2013-01-31 18:53:00
11:53 AM,57.9,30.9,36,30.33,10.0,Variable,5.8,-,N/A,,Clear,0,2013-01-31 19:53:00
12:53 PM,60.1,30.9,33,30.29,10.0,South,5.8,-,N/A,,Clear,180,2013-01-31 20:53:00
1:53 PM,62.1,30.0,30,30.28,10.0,Calm,Calm,-,N/A,,Clear,0,2013-01-31 21:53:00
2:53 PM,64.0,28.9,27,30.25,10.0,Calm,Calm,-,N/A,,Clear,0,2013-01-31 22:53:00
3:53 PM,63.0,28.9,28,30.25,10.0,East,3.5,-,N/A,,Clear,90,2013-01-31 23:53:00
4:53 PM,61.0,30.0,31,30.23,10.0,East,4.6,-,N/A,,Clear,80,2013-02-01 00:53:00
5:53 PM,59.0,30.0,33,30.24,10.0,Calm,Calm,-,N/A,,Clear,0,2013-02-01 01:53:00
6:53 PM,54.0,33.1,45,30.25,10.0,WNW,4.6,-,N/A,,Clear,300,2013-02-01 02:53:00
7:53 PM,51.1,33.1,50,30.26,10.0,NW,5.8,-,N/A,,Clear,320,2013-02-01 03:53:00
8:53 PM,48.9,34.0,56,30.26,10.0,WNW,5.8,-,N/A,,Clear,300,2013-02-01 04:53:00
9:53 PM,48.0,33.1,56,30.26,10.0,NNW,6.9,-,N/A,,Clear,330,2013-02-01 05:53:00
10:53 PM,46.9,33.1,59,30.27,10.0,Calm,Calm,-,N/A,,Clear,0,2013-02-01 06:53:00
11:53 PM,46.4,33.8,62,30.21,10.0,Calm,Calm,-,N/A,,Clear,0,2013-02-01 07:53:00